STARLINK-11492, 62224

Orbit data source: Space-Track

STARLINK-11492, 62224 is a payload satellite owned by SpaceX/Seattle (US) in LEO that was launched on Thu, 05 Dec 2024 UTC via an FALCON 9 launch vehicle from the Air Force Western Test Range (AFWTR). Payload-class satellites include a variety of spacecraft equipped with specific instruments for various scientific and technological missions. These include communications satellites like Starlink; space stations such as the ISS; scientific satellites like the Hubble; Earth observation satellites from companies like Planet Labs, Umbra, and HawkEye 360; GPS; miniature CubeSats for education and research; and military/defense satellites.

Loading next visibility...
Identifier
62224, 2024-231G
Orbit
LEO
Last TLE update
15 hours ago
Origin
Manufacturer
SpaceX/Seattle
Mission
Operational Commercial Communications
Bus & Motor
STARLINK V2M, Unknown motor
Mass
730 kg wet, ~700 kg dry
Launch date (UTC)
2024-12-05 (7 months ago)
Launch vehicle
FALCON 9
Launch site
Air Force Western Test Range (AFWTR)
Object type
Payload
Rocket body
Debris
Shape & HBR
Box + 2 Pan, 29 m
Radar Cross Section
36.964 m², Large (>1 m²)

Expand to show TLE details & history

TLE from 15 hours ago
0 STARLINK-11492
1 62224U 24231G   25181.72072800  .00152435  00000-0  12373-2 0  9999
2 62224  53.1563 263.6329 0001078  90.5258 269.5883 15.69764096 33838
Epoch: 2025-06-30T17:17Z
TLE epoch observation values (Epoch: 2025-06-30T17:17:50.899Z)
Latitude
-0.00004°
Longitude
85.14431°
Altitude
360.492 km
Speed
7.694 km/s
True Right ascension
17h 34m 31s
True Declination
0° 00' 00"
Sunlit
Object was in full shadow at epoch
Visualization orbit readout
Latitude
13.75477°
Longitude
92.49786°
Altitude
359.003 km
Speed
7.696 km/s
Apparent Right ascension
14h 53m 18s
Apparent Declination
-34° 16' 06"
Sunlit
Object is in full shadow
Visualization observer readout
Local Sidereal Time
20:17:07
Azimuth
237.735° WSW
Elevation
-15.167°
Doppler factor
1
Orbital elements
Apogee altitude
360.56 km
Perigee altitude
359.107 km
Semi-major axis
6,737.97 km
Eccentricity
0.00011
Inclination
53.1563°
RAAN
263.6329°
Arg. of periapsis
90.5258°
True anomaly
Unknown
Mean anomaly
269.5883°
Eccentric anomaly
Unknown
Mean motion
3.92419 °/min
Orbital period
91.74 mins
BSTAR
0.0012373
Loading maneuver chart data...
Loading SW <> Apogee altitude chart data...
Loading historical data...
Loading historical data...
Loading historical data...
Loading historical data...
Loading historical data...
Loading historical data...
Loading historical data...

STARLINK-11492 Visibility forecast

Observer location: undefined°, undefined°

Span
Click to sort rows by Start time (UTC) header in descending order
Start Az.
Max El. time (UTC)
Max El. Az.
Max El.
End time (UTC)
End Az.
5 mins2025-07-01 08:46:58.194Z255.801° W2025-07-01 08:48:58.194Z304.102° NW31.645°2025-07-01 08:51:58.194Z36.212° NE
4 mins2025-07-02 07:40:58.194Z211.918° SW2025-07-02 07:42:58.194Z93.016° ESE38.508°2025-07-02 07:44:58.194Z57.729° ENE
|